Terminal Aerodrome Forecast
Issued by NWS

Home | Current Version | Previous Version | Text Only | Print | Product List | Glossary Off
Versions: 1 2 3 4 5 6 7 8 9 10 11 12 13 14 15 16 17 18 19 20 21 22

000
FTUS43 KICT 241400 AAC
TAFHUT
TAF AMD
KHUT 241404Z 2414/2512 18007KT 1/4SM FG OVC002
      TEMPO 2414/2416 3SM BR SCT005 OVC300
     FM241600 21009KT P6SM BKN300=

USA.gov is the U.S. government's official web portal to all federal, state and local government web resources and services.